Starlink 5708

operational
NORAD ID: 55470 Int'l Des: 2023-015 Owner: SPXS Country: US Constellation: starlink
LEOCIRCULAR

About Starlink 5708

Description loading...

Live Position

Loading 3D Globe...

Upcoming Passes

Altitude History

Altitude vs Time

uPlot chart will show altitude changes over time

Two-Line Element Set

1 55470U 23015X 25351.17087600 -.00000115 00000-0 65879-5 0 9995
2 55470 43.0038 54.1502 0000970 271.1031 88.9700 15.02537612158344
Epoch: Dec 17, 2025 • Age: 11 hours

Current Status

Altitude 559.3 km
Velocity 7.58 km/s
Sub-Earth Point -3.86°S, 92.34°E
Launch Date Feb 2, 2023
Age 2.8 years
Type internet

Technical Details

Classification Payload
Mass 305.00 kg
Dry Mass 290.00 kg
Total Mass 305.00 kg
Length 0.20 m
Diameter 2.80 m
Span 9.00 m
Shape Box + pan
Manufacturer SPXS
Bus Type Starlink
Phase Status In Orbit
Owner/State SPXS/US

Large Constellations

Loading constellations...